SATCOM 3 DEB, 32986

Orbit data source: Space-Track

SATCOM 3 DEB, 32986 is space debris in HEO originally from a launch on Fri, 07 Dec 1979 UTC launched from the Air Force Eastern Test Range (AFETR). Debris objects in space refer to the collection of defunct objects orbiting the Earth. Examples of debris include non-operational satellites, rocket bodies, and fragments generated from explosions, collisions, or faulty payload assembly.

Loading next visibility...
Identifier
32986, 1979-101M
Orbit
HEO
Country
Flag of USUS
Related business
Manufacturer
Unknown
Mission
Spacecraft
Bus & Motor
Unknown
Mass
Unknown
Launch date (UTC)
1979-12-07 (47 years ago)
Launch vehicle
Unknown
Launch site
Air Force Eastern Test Range (AFETR)
Object type
Payload
Rocket body
Debris
Shape & HBR
Unknown shape, 1.1 m
Radar Cross Section
Medium (>0.1 m² and <1 m²)

Expand to show TLE details & history
Last TLE update: 22 hours ago

TLE from 22 hours ago
0 SATCOM 3 DEB
1 32986U 79101M   26168.15941641 -.00000100  00000-0  00000-0 0  9992
2 32986   8.8144  78.4855 4811980 114.7269  12.5952  1.82659858122644
Epoch: 2026-06-17T03:49Z
TLE epoch observation values (Epoch: 2026-06-17T03:49:33.577Z)
Latitude
3.91883°
Longitude
-90.59787°
Altitude
9,441.213 km
Speed
6.024 km/s
True Right ascension
15h 28m 51s
True Declination
3° 54' 30"
Sunlit
Object was in daylight at epoch
Visualization orbit readout
Latitude
Unknown
Longitude
Unknown
Altitude
Unknown
Speed
Unknown
Apparent Right ascension
Unknown
Apparent Declination
Unknown
Sunlit
N/A
Visualization observer readout
Local Sidereal Time
12:58:25
Azimuth
Unknown
Elevation
Unknown
Doppler factor
Unknown
Orbital elements
Apogee altitude
35,496.793 km
Perigee altitude
8,288.908 km
Semi-major axis
28,270.987 km
Eccentricity
0.4812
Inclination
8.8144°
RAAN
78.4855°
Arg. of periapsis
114.7269°
True anomaly
38.97813°
Mean anomaly
12.5952°
Eccentric anomaly
23.65914°
Mean motion
0.4566 °/min
Orbital period
788.44 mins
BSTAR
0
Loading maneuver chart data...
Computing Atmospheric mass density...
Loading historical data...
Loading historical data...
Loading historical data...
Loading historical data...
Loading historical data...
Loading historical data...
Loading historical data...

Documentation

Showing up to 5 results
|